• Processing (Info)

  • MPEC 2011-B29 : 2011 BV10

    The following Minor Planet Electronic Circular may be linked-to from your own Web pages, but must not otherwise be redistributed electronically.

    A form allowing access to any MPEC is at the bottom of this page.


    Read MPEC 2011-B28 Read MPEC 2011-B30


    M.P.E.C. 2011-B29                                Issued 2011 Jan. 24, 22:37 UT
    
         The Minor Planet Electronic Circulars contain information on unusual
             minor planets and routine data on comets.  They are published
       on behalf of Commission 20 of the International Astronomical Union by the
              Minor Planet Center, Smithsonian Astrophysical Observatory,
                              Cambridge, MA 02138, U.S.A.
    
                 Prepared using the Tamkin Foundation Computer Network
    
                                  MPC@CFA.HARVARD.EDU
           URL https://www.minorplanetcenter.org/iau/mpc.html  ISSN 1523-6714
    
                                       2011 BV10
    
    Observations:
         K11B10V* C2011 01 24.36632 08 34 11.64 +29 12 09.6          19.3 VrEB029G96
         K11B10V  C2011 01 24.37388 08 34 12.82 +29 11 44.8          19.9 VrEB029G96
         K11B10V  C2011 01 24.38708 08 34 14.95 +29 11 02.6          20.8 VrEB029G96
         K11B10V  C2011 01 24.39472 08 34 16.14 +29 10 39.3          20.4 VrEB029G96
         K11B10V  C2011 01 24.40620 08 34 18.04 +29 10 01.7          20.3 VrEB029G96
         K11B10V  C2011 01 24.41337 08 34 19.20 +29 09 38.8          20.4 VrEB029G96
         K11B10V  C2011 01 24.42060 08 34 20.42 +29 09 15.8          19.2 VrEB029G96
         K11B10V  C2011 01 24.55606 08 34 52.69 +29 02 07.7          20.0 RoEB029300
         K11B10V  C2011 01 24.55945 08 34 53.26 +29 01 56.9          20.6 RoEB029300
         K11B10V  C2011 01 24.56280 08 34 53.85 +29 01 48.2          20.5 RoEB029300
         K11B10V  C2011 01 24.56627 08 34 54.40 +29 01 36.6          20.4 RoEB029300
    
    Observer details:
    300 Bisei Spaceguard Center--BATTeRS.  Observers A. Asami, S. Okumura.  1.0-m
        f/3.0 reflector + CCD.
    G96 Mt. Lemmon Survey.  Observer S. M. Larson.  Measurers J. D. Ahern,
        E. C. Beshore, A. Boattini, G. J. Garradd, A. R. Gibbs, A. D. Grauer,
        R. E. Hill, R. A. Kowalski, S. M. Larson, R. H. McNaught.  1.5-m reflector
        + CCD.
    
    Orbital elements:
    2011 BV10                                                Earth MOID = 0.0717 AU
    Epoch 2011 Jan. 19.0 TT = JDT 2455580.5                 MPC
    M 347.01045              (2000.0)            P               Q
    n   0.44857787     Peri.  193.27817     -0.85154895     -0.52097874
    a   1.6900938      Node   315.16386     +0.48829889     -0.74736845
    e   0.3744871      Incl.    4.77546     +0.19086274     -0.41233670
    P   2.20           H   24.5           G   0.15
    From 11 observations 2011 Jan. 24-24.  E-assumed.
    
    Ephemeris:
    2011 BV10                a,e,i = 1.69, 0.37, 5                   q = 1.0572
    Date    TT    R. A. (2000) Decl.     Delta      r     Elong.  Phase     V
    2010 12 25    07 30 32.5 +38 59 57   0.2160  1.1857   157.3    18.7    22.5
    ...
    2011 01 09    07 55 21.1 +37 14 34   0.1501  1.1278   163.0    14.8    21.5
    ...
    2011 01 17    08 13 06.5 +34 12 55   0.1223  1.1028   166.0    12.5    20.9
    ...
    2011 01 23    08 29 54.9 +30 20 08   0.1048  1.0872   169.0    10.0    20.4
    2011 01 24    08 33 02.8 +29 31 05   0.1021  1.0849   169.6     9.4    20.3
    2011 01 25    08 36 16.3 +28 38 45   0.09960 1.0827   170.3     8.8    20.3
    ...
    2011 01 31    08 57 39.2 +22 09 20   0.08637 1.0713   175.2     4.4    19.7
    ...
    2011 02 08    09 31 06.1 +10 01 19   0.07510 1.0611   174.6     5.1    19.4
    ...
    2011 02 23    10 39 39.1 -16 01 23   0.07724 1.0590   153.6    24.6    20.2
    
    Timothy B. Spahr             (C) Copyright 2011 MPC           M.P.E.C. 2011-B29
    

    Read MPEC 2011-B28 Read MPEC 2011-B30


    MPEC number:

    Enter an MPEC number in one of the following forms:

    • 1997-B01 (the full form)
    • J97B01 (the packed version of the full form)
    • B01 (the abbreviated form)